EW0888 Weather Reports


time (UTC)temp
C
wind
direction
speed
KPH
gust
KPH
rain 1hr
cm
rain 24hr
cm
rain mn
cm
humidity
%
barometer
mb
20260503034049 27 0 0.0 1.6 0.00 0.00 0.00 74 1014.2
20260503033548 27 0 0.0 0.0 0.00 0.00 0.00 74 1014.2
20260503033049 27 0 0.0 0.0 0.00 0.00 0.00 74 1014.2
20260503032548 27 0 0.0 0.0 0.00 0.00 0.00 74 1014.1
20260503032048 27 0 0.0 0.0 0.00 0.00 0.00 74 1014.1
20260503031552 27 0 0.0 1.6 0.00 0.00 0.00 74 1014.1
20260503031049 27 0 0.0 3.2 0.00 0.00 0.00 74 1014.2
20260503030549 27 0 0.0 3.2 0.00 0.00 0.00 73 1014.2
20260503030105 27 333 0.0 3.2 0.00 0.00 0.00 73 1014.1
20260503025548 27 0 0.0 3.2 0.00 0.00 0.00 73 1014.0
20260503025051 27 0 0.0 3.2 0.00 0.00 0.00 73 1014.1
20260503024600 27 0 0.0 3.2 0.00 0.00 0.00 73 1014.0
20260503024049 27 0 0.0 3.2 0.00 0.00 0.00 73 1014.1
20260503023550 27 0 0.0 3.2 0.00 0.00 0.00 73 1014.1
20260503023058 27 0 0.0 3.2 0.00 0.00 0.00 73 1014.1
20260503022549 27 0 0.0 3.2 0.00 0.00 0.00 73 1014.1
20260503022048 27 331 0.0 3.2 0.00 0.00 0.00 72 1014.1
20260503021550 28 0 0.0 6.4 0.00 0.00 0.00 72 1013.9
20260503021049 28 0 0.0 6.4 0.00 0.00 0.00 72 1013.9
20260503020549 28 336 0.0 3.2 0.00 0.00 0.00 72 1014.0
20260503015547 28 0 0.0 4.8 0.00 0.00 0.00 71 1014.0
20260503015048 28 336 0.0 4.8 0.00 0.00 0.00 71 1014.0
20260503014554 28 335 0.0 4.8 0.00 0.00 0.00 71 1014.0
20260503014050 28 0 0.0 4.8 0.00 0.00 0.00 71 1014.0
20260503013548 28 0 0.0 4.8 0.00 0.00 0.00 70 1013.9
20260503013102 28 335 0.0 4.8 0.00 0.00 0.00 70 1013.9
20260503012551 28 0 0.0 4.8 0.00 0.00 0.00 70 1013.7
20260503012047 28 334 1.6 4.8 0.00 0.00 0.00 69 1013.7
20260503011555 28 0 0.0 4.8 0.00 0.00 0.00 69 1013.6
20260503011048 28 333 0.0 4.8 0.00 0.00 0.00 67 1013.5
20260503010548 28 0 0.0 4.8 0.00 0.00 0.00 67 1013.4
20260503010052 28 0 1.6 4.8 0.00 0.00 0.00 68 1013.4
20260503005548 29 333 1.6 6.4 0.00 0.00 0.00 66 1013.4
20260503005047 29 333 1.6 6.4 0.00 0.00 0.00 67 1013.2
20260503004600 29 0 0.0 4.8 0.00 0.00 0.00 67 1013.1
20260503004048 29 0 0.0 4.8 0.00 0.00 0.00 66 1013.1
20260503003548 29 360 1.6 4.8 0.00 0.00 0.00 66 1012.9
20260503003053 29 352 1.6 4.8 0.00 0.00 0.00 65 1012.9
20260503002550 29 0 1.6 4.8 0.00 0.00 0.00 65 1012.8
20260503002048 29 352 1.6 6.4 0.00 0.00 0.00 65 1012.6
20260503001555 29 352 1.6 6.4 0.00 0.00 0.00 64 1012.5
20260503001050 29 273 1.6 4.8 0.00 0.00 0.00 65 1012.6
20260503000547 29 0 0.0 12.9 0.00 0.00 0.00 65 1012.5
20260502235548 29 186 3.2 14.5 0.00 0.00 0.00 70 1012.4
20260502235048 28 182 3.2 14.5 0.00 0.00 0.00 68 1012.2
20260502234601 29 183 1.6 11.3 0.00 0.00 0.00 70 1012.1
20260502234048 29 193 3.2 12.9 0.00 0.00 0.00 69 1012.1
20260502233549 29 197 3.2 12.9 0.00 0.00 0.00 67 1012.0
20260502233050 29 187 6.4 12.9 0.00 0.00 0.00 68 1012.0
20260502232548 29 206 4.8 14.5 0.00 0.00 0.00 67 1011.9
20260502232049 29 185 3.2 14.5 0.00 0.00 0.00 67 1011.7
20260502231552 29 190 4.8 16.1 0.00 0.00 0.00 67 1011.6
20260502231048 29 201 4.8 16.1 0.00 0.00 0.00 67 1011.5
20260502230548 29 194 6.4 17.7 0.00 0.00 0.00 67 1011.3
20260502230053 30 174 6.4 17.7 0.00 0.00 0.00 67 1011.4
20260502225551 30 203 4.8 17.7 0.00 0.00 0.00 67 1011.3
20260502225048 30 183 6.4 17.7 0.00 0.00 0.00 67 1011.3
20260502224555 30 178 4.8 12.9 0.00 0.00 0.00 68 1011.3
20260502224048 30 193 6.4 16.1 0.00 0.00 0.00 68 1011.2
20260502223550 30 186 6.4 17.7 0.00 0.00 0.00 67 1011.2
20260502223101 30 182 6.4 17.7 0.00 0.00 0.00 66 1011.1
20260502222548 30 183 4.8 14.5 0.00 0.00 0.00 67 1011.2
20260502222049 30 192 4.8 17.7 0.00 0.00 0.00 66 1011.3
20260502221557 30 184 4.8 17.7 0.00 0.00 0.00 66 1011.2
20260502221048 30 181 6.4 20.9 0.00 0.00 0.00 65 1011.2
20260502220548 30 190 4.8 20.9 0.00 0.00 0.00 65 1011.3
20260502215548 31 200 4.8 16.1 0.00 0.00 0.00 65 1011.0
20260502215048 31 190 4.8 14.5 0.00 0.00 0.00 65 1011.1
20260502214612 31 215 4.8 14.5 0.00 0.00 0.00 64 1011.1
20260502214048 31 192 6.4 12.9 0.00 0.00 0.00 63 1011.0
20260502213550 31 188 4.8 14.5 0.00 0.00 0.00 63 1010.9
20260502213109 31 156 4.8 14.5 0.00 0.00 0.00 64 1010.9
20260502212548 31 184 4.8 14.5 0.00 0.00 0.00 63 1010.8
20260502212049 31 191 4.8 14.5 0.00 0.00 0.00 63 1010.7
20260502211554 31 196 4.8 17.7 0.00 0.00 0.00 63 1010.7
20260502211048 31 196 4.8 17.7 0.00 0.00 0.00 63 1010.6
20260502210547 31 185 6.4 16.1 0.00 0.00 0.00 63 1010.6
20260502210054 31 177 4.8 16.1 0.00 0.00 0.00 68 1010.6
20260502205551 31 221 6.4 17.7 0.00 0.00 0.00 69 1010.4
20260502205048 31 186 8.0 17.7 0.00 0.00 0.00 69 1010.5
20260502204550 31 165 8.0 17.7 0.00 0.00 0.00 69 1010.6
20260502204051 31 203 9.7 17.7 0.00 0.00 0.00 68 1010.7
20260502203548 31 189 4.8 16.1 0.00 0.00 0.00 66 1010.6
20260502203113 31 185 4.8 16.1 0.00 0.00 0.00 69 1010.7
20260502202553 31 182 6.4 22.5 0.00 0.00 0.00 69 1010.7
20260502202049 31 171 6.4 24.1 0.00 0.00 0.00 69 1010.8
20260502201547 31 181 8.0 24.1 0.00 0.00 0.00 69 1011.0
20260502201052 31 171 9.7 20.9 0.00 0.00 0.00 69 1011.0
20260502200549 31 254 9.7 20.9 0.00 0.00 0.00 69 1011.0
20260502200057 32 159 6.4 17.7 0.00 0.00 0.00 68 1011.0
20260502195549 32 180 6.4 14.5 0.00 0.00 0.00 64 1011.2
20260502195047 32 192 4.8 14.5 0.00 0.00 0.00 60 1011.3
20260502194551 32 191 4.8 14.5 0.00 0.00 0.00 62 1011.4
20260502194047 32 196 4.8 14.5 0.00 0.00 0.00 61 1011.4
20260502193547 32 215 3.2 22.5 0.00 0.00 0.00 64 1011.4
20260502193056 31 184 8.0 22.5 0.00 0.00 0.00 64 1011.5
20260502192548 31 174 8.0 17.7 0.00 0.00 0.00 63 1011.4
20260502192048 31 205 8.0 17.7 0.00 0.00 0.00 63 1011.4
20260502191600 31 170 4.8 17.7 0.00 0.00 0.00 64 1011.4
20260502191049 31 150 4.8 19.3 0.00 0.00 0.00 64 1011.5
20260502190551 31 207 4.8 20.9 0.00 0.00 0.00 65 1011.5
20260502190054 31 159 6.4 20.9 0.00 0.00 0.00 63 1011.6
20260502185548 32 215 4.8 17.7 0.00 0.00 0.00 64 1011.6
20260502185052 32 194 3.2 17.7 0.00 0.00 0.00 63 1011.6
20260502184552 32 186 4.8 16.1 0.00 0.00 0.00 63 1011.6
20260502184048 32 178 6.4 16.1 0.00 0.00 0.00 61 1011.6
20260502183547 31 158 4.8 16.1 0.00 0.00 0.00 63 1011.7
20260502183049 32 177 4.8 16.1 0.00 0.00 0.00 62 1011.7
20260502182552 32 215 6.4 19.3 0.00 0.00 0.00 62 1011.7
20260502182048 32 186 6.4 20.9 0.00 0.00 0.00 60 1011.8
20260502181552 32 207 8.0 20.9 0.00 0.00 0.00 61 1011.9
20260502181049 32 199 4.8 19.3 0.00 0.00 0.00 63 1011.9
20260502180549 31 205 4.8 20.9 0.00 0.00 0.00 64 1011.8
20260502164052 30 198 4.8 22.5 0.00 0.00 0.00 69 1012.5
20260502163550 30 194 6.4 22.5 0.00 0.00 0.00 69 1012.4
20260502163109 30 173 8.0 19.3 0.00 0.00 0.00 69 1012.4
20260502162550 30 192 6.4 19.3 0.00 0.00 0.00 71 1012.5
20260502162049 30 192 9.7 19.3 0.00 0.00 0.00 71 1012.6
20260502161619 30 211 8.0 20.9 0.00 0.00 0.00 71 1012.6
20260502161049 30 203 8.0 24.1 0.00 0.00 0.00 70 1012.7
20260502160549 30 180 6.4 24.1 0.00 0.00 0.00 70 1012.6
20260502152050 28 179 6.4 19.3 0.00 0.00 0.00 75 1013.0
20260502151557 28 168 4.8 22.5 0.00 0.00 0.00 74 1013.1
20260502151049 28 213 3.2 22.5 0.00 0.00 0.00 74 1012.9
20260502150551 28 210 6.4 17.7 0.00 0.00 0.00 74 1013.0
20260502130551 27 171 4.8 14.5 0.00 0.00 0.00 77 1012.4
20260502130105 27 166 3.2 12.9 0.00 0.00 0.00 77 1012.4
20260502123544 27 192 1.6 9.7 0.00 0.00 0.00 78 1012.4
20260502123112 27 203 1.6 9.7 0.00 0.00 0.00 78 1012.3
20260502122545 27 209 3.2 9.7 0.00 0.00 0.00 78 1012.3
20260502122049 27 0 1.6 9.7 0.00 0.00 0.00 79 1012.4
20260502121556 27 186 4.8 17.7 0.00 0.00 0.00 79 1012.4
20260502121048 26 193 3.2 17.7 0.00 0.00 0.00 79 1012.4
20260502120548 26 194 3.2 14.5 0.00 0.00 0.00 79 1012.3
20260502115548 26 181 3.2 11.3 0.00 0.00 0.00 79 1012.3
20260502115048 26 180 3.2 11.3 0.00 0.00 0.00 79 1012.4
20260502114553 26 196 4.8 12.9 0.00 0.00 0.00 79 1012.3
20260502114048 26 148 4.8 12.9 0.00 0.00 0.00 80 1012.3
20260502113548 26 194 1.6 8.0 0.00 0.00 0.00 80 1012.4
20260502113052 26 187 1.6 9.7 0.00 0.00 0.00 79 1012.3
20260502112548 26 202 1.6 16.1 0.00 0.00 0.00 79 1012.3
20260502112048 26 197 4.8 16.1 0.00 0.00 0.00 79 1012.4
20260502111554 26 196 0.0 6.4 0.00 0.00 0.00 79 1012.4
20260502111045 26 0 0.0 8.0 0.00 0.00 0.00 79 1012.5
20260502110545 26 161 1.6 8.0 0.00 0.00 0.00 79 1012.3
20260502110055 26 194 1.6 12.9 0.00 0.00 0.00 79 1012.3
20260502105548 26 194 1.6 12.9 0.00 0.00 0.00 79 1012.3
20260502105047 26 190 3.2 8.0 0.00 0.00 0.00 79 1012.3
20260502104554 26 195 1.6 9.7 0.00 0.00 0.00 80 1012.2
20260502104047 26 202 3.2 11.3 0.00 0.00 0.00 80 1012.1
20260502103551 26 197 1.6 11.3 0.00 0.00 0.00 80 1012.2
20260502103054 26 186 3.2 9.7 0.00 0.00 0.00 80 1012.1
20260502102548 26 190 3.2 9.7 0.00 0.00 0.00 80 1012.2
20260502102047 26 185 3.2 9.7 0.00 0.00 0.00 80 1012.2
20260502101602 26 177 1.6 6.4 0.00 0.00 0.00 80 1012.2
20260502101048 26 0 1.6 8.0 0.00 0.00 0.00 79 1012.2
20260502100548 26 176 3.2 8.0 0.00 0.00 0.00 79 1012.2
20260502091047 26 192 1.6 8.0 0.00 0.00 0.00 80 1012.0
20260502090547 25 211 3.2 8.0 0.00 0.00 0.00 80 1012.0
20260502071049 25 187 1.6 8.0 0.00 0.00 0.00 79 1012.0
20260502070551 25 186 1.6 8.0 0.00 0.00 0.00 79 1011.9
20260502070107 25 189 3.2 8.0 0.00 0.00 0.00 80 1011.9
20260502065551 25 180 0.0 4.8 0.00 0.00 0.00 80 1012.0
20260502065049 26 0 0.0 6.4 0.00 0.00 0.00 80 1011.9
20260502064554 25 176 1.6 6.4 0.00 0.00 0.00 80 1011.9
20260502064049 25 191 1.6 6.4 0.00 0.00 0.00 80 1012.1
20260502063549 25 191 1.6 6.4 0.00 0.00 0.00 80 1012.2
20260502063051 25 0 0.0 6.4 0.00 0.00 0.00 79 1012.3
20260502062549 25 190 0.0 6.4 0.00 0.00 0.00 80 1012.2
20260502062049 25 190 1.6 3.2 0.00 0.00 0.00 80 1012.2
20260502061551 25 0 0.0 6.4 0.00 0.00 0.00 80 1012.2
20260502061051 25 184 1.6 8.0 0.00 0.00 0.00 80 1012.2
20260502060549 25 0 3.2 8.0 0.00 0.00 0.00 80 1012.1
20260502060053 25 168 1.6 8.0 0.00 0.00 0.00 80 1012.2
20260502055550 25 0 1.6 8.0 0.00 0.00 0.00 80 1012.2
20260502055053 25 165 1.6 6.4 0.00 0.00 0.00 80 1012.2
20260502054551 25 203 1.6 8.0 0.00 0.00 0.00 80 1012.2
20260502054049 25 173 1.6 8.0 0.00 0.00 0.00 80 1012.1
20260502053549 25 178 0.0 4.8 0.00 0.00 0.00 80 1012.1
20260502053058 25 0 0.0 3.2 0.00 0.00 0.00 80 1012.3
20260502052549 25 0 0.0 3.2 0.00 0.00 0.00 80 1012.4
20260502052052 25 0 0.0 3.2 0.00 0.00 0.00 80 1012.4
20260502051602 25 177 0.0 3.2 0.00 0.00 0.00 80 1012.4
20260502051049 25 0 0.0 4.8 0.00 0.00 0.00 80 1012.6
20260502050549 25 177 0.0 4.8 0.00 0.00 0.00 80 1012.6
20260502050052 25 177 0.0 4.8 0.00 0.00 0.00 80 1012.7
20260502045553 25 0 0.0 1.6 0.00 0.00 0.00 79 1012.7
20260502045049 25 0 0.0 3.2 0.00 0.00 0.00 79 1012.8
20260502044559 25 0 0.0 3.2 0.00 0.00 0.00 79 1012.9
20260502044052 25 0 0.0 3.2 0.00 0.00 0.00 79 1013.0
20260502043553 25 0 0.0 3.2 0.00 0.00 0.00 79 1012.9
20260502043056 25 0 0.0 3.2 0.00 0.00 0.00 79 1013.1
20260502042548 25 0 0.0 3.2 0.00 0.00 0.00 78 1013.1
20260502042052 25 0 0.0 3.2 0.00 0.00 0.00 78 1013.1
20260502041553 25 0 0.0 3.2 0.00 0.00 0.00 78 1013.2
20260502041052 25 183 0.0 6.4 0.00 0.00 0.00 78 1013.2
20260502040552 25 183 0.0 6.4 0.00 0.00 0.00 78 1013.2
20260502035549 25 183 1.6 4.8 0.00 0.00 0.00 79 1013.3
20260502035049 26 0 1.6 4.8 0.00 0.00 0.00 78 1013.4
20260502034550 26 186 1.6 4.8 0.00 0.00 0.00 78 1013.3